FW8778 Weather Reports


Display with metric or nautical units.
time (UTC)temp
F
wind
direction
speed
MPH
gust
MPH
rain 1hr
in
rain 24hr
in
rain mn
in
humidity
%
barometer
mb
20260906064514 79 283 0.0 0.0 0.00 0.00 0.00 51 1018.5
20260906063012 78 359 0.0 0.0 0.00 0.00 0.00 52 1018.3
20260906061514 77 273 0.0 0.0 0.00 0.00 0.00 54 1018.2
20260906060004 76 359 0.0 0.0 0.00 0.00 0.00 55 1018.2
20260906054508 75 359 0.0 0.0 0.00 0.00 0.00 55 1018.1
20260906053002 74 282 0.0 0.0 0.00 0.00 0.00 55 1018.1
20260906051501 74 279 0.0 0.0 0.00 0.00 0.00 55 1018.0
20260906050059 73 359 0.0 0.0 0.00 0.00 0.00 57 1017.9
20260906044559 73 359 0.0 0.0 0.00 0.00 0.00 57 1017.7
20260906043102 73 359 0.0 0.0 0.00 0.00 0.00 58 1017.7
20260906041558 73 359 0.0 0.0 0.00 0.00 0.00 58 1017.7
20260906040057 74 359 0.0 0.0 0.00 0.00 0.00 59 1017.7
20260906034604 74 359 0.0 0.0 0.00 0.00 0.00 60 1017.6
20260906033057 74 359 0.0 0.0 0.00 0.00 0.00 61 1017.6
20260906031556 73 293 0.0 0.0 0.00 0.00 0.00 61 1017.4
20260906030054 73 283 0.0 0.0 0.00 0.00 0.00 62 1017.5
20260906024553 74 288 0.0 0.0 0.00 0.00 0.00 62 1017.5
20260906023053 74 247 0.0 0.0 0.00 0.00 0.00 62 1017.6
20260906021553 74 292 0.0 0.0 0.00 0.00 0.00 61 1017.6
20260906020052 74 359 0.0 0.0 0.00 0.00 0.00 61 1017.6
20260906014554 74 297 0.0 0.0 0.00 0.00 0.00 61 1017.7
20260906013053 74 283 0.0 0.0 0.00 0.00 0.00 60 1017.8
20260906011547 75 290 0.0 0.0 0.00 0.00 0.00 58 1017.7
20260906010046 75 359 0.0 0.0 0.00 0.00 0.00 58 1017.8
20260906004546 75 287 0.0 0.0 0.00 0.00 0.00 58 1017.7
20260906003045 75 248 0.0 0.0 0.00 0.00 0.00 59 1017.7
20260906001543 75 301 0.0 0.0 0.00 0.00 0.00 60 1017.7
20260906000043 75 359 0.0 0.0 0.00 0.00 0.00 60 1018.0
20260905234543 75 359 0.0 0.0 0.00 0.00 0.00 59 1017.9
20260905233040 75 303 0.0 0.0 0.00 0.00 0.00 60 1017.9
20260905231541 75 291 0.0 0.0 0.00 0.00 0.00 60 1017.8
20260905230039 75 359 0.0 0.0 0.00 0.00 0.00 61 1017.8
20260905224538 76 287 0.0 0.0 0.00 0.00 0.00 61 1017.9
20260905223035 76 359 0.0 0.0 0.00 0.00 0.00 61 1017.8
20260905221532 76 359 0.0 0.0 0.00 0.00 0.00 63 1017.9
20260905220027 75 282 0.0 0.0 0.00 0.00 0.00 64 1017.9
20260905214526 76 359 0.0 0.0 0.00 0.00 0.00 65 1018.0
20260905213026 76 284 0.0 0.0 0.00 0.00 0.00 65 1017.8
20260905211527 76 282 0.0 0.0 0.00 0.00 0.00 66 1017.7
20260905210025 76 284 0.0 0.0 0.00 0.00 0.00 67 1017.8
20260905204526 76 359 0.0 0.0 0.00 0.00 0.00 67 1017.8
20260905203025 76 291 0.0 0.0 0.00 0.00 0.00 67 1017.7
20260905201525 76 359 0.0 0.0 0.00 0.00 0.00 67 1017.7
20260905200032 76 359 0.0 0.0 0.00 0.00 0.00 68 1017.8
20260905194524 76 359 0.0 0.0 0.00 0.00 0.00 67 1017.9
20260905193026 77 359 0.0 0.0 0.00 0.00 0.00 66 1018.0
20260905191531 77 359 0.0 0.0 0.00 0.00 0.00 67 1018.0
20260905190031 76 283 0.0 0.0 0.00 0.00 0.00 67 1017.9
20260905184528 76 359 0.0 0.0 0.00 0.00 0.00 73 1018.0
20260905183023 76 359 0.0 0.0 0.00 0.00 0.00 71 1017.8
20260905181522 77 293 0.0 0.0 0.00 0.00 0.00 70 1017.7
20260905180025 77 359 0.0 0.0 0.00 0.00 0.00 69 1017.7
20260905174525 77 359 0.0 0.0 0.00 0.00 0.00 70 1017.7
20260905173020 77 359 0.0 0.0 0.00 0.00 0.00 73 1017.5
20260905171520 78 359 0.0 0.0 0.00 0.00 0.00 74 1017.4
20260905170020 78 303 0.0 0.0 0.00 0.00 0.00 75 1017.4
20260905164519 78 359 0.0 0.0 0.00 0.00 0.00 77 1017.5
20260905163018 79 359 0.0 0.0 0.00 0.00 0.00 76 1017.6
20260905161517 79 359 0.0 0.0 0.00 0.00 0.00 75 1017.4
20260905160020 80 359 0.0 0.0 0.00 0.00 0.00 74 1017.5
20260905154515 80 359 0.0 0.0 0.00 0.00 0.00 72 1017.5
20260905153016 81 359 0.0 0.0 0.00 0.00 0.00 71 1017.4
20260905151515 81 359 0.0 0.0 0.00 0.00 0.00 69 1017.4
20260905150012 81 359 0.0 0.0 0.00 0.00 0.00 70 1017.3
20260905144521 82 359 0.0 0.0 0.00 0.00 0.00 69 1017.4
20260905143011 82 359 0.0 0.0 0.00 0.00 0.00 69 1017.6
20260905141510 82 359 0.0 0.0 0.00 0.00 0.00 67 1017.6
20260905140009 82 359 0.0 0.0 0.00 0.00 0.00 66 1017.6
20260905134509 83 359 0.0 0.0 0.00 0.00 0.00 67 1017.7
20260905133008 83 359 0.0 0.0 0.00 0.00 0.00 64 1017.8
20260905131508 84 359 0.0 0.0 0.00 0.00 0.00 61 1017.8
20260905130009 83 359 0.0 0.0 0.00 0.00 0.00 64 1017.8
20260905124517 83 359 0.0 0.0 0.00 0.00 0.00 66 1018.0
20260905123006 82 359 0.0 0.0 0.00 0.00 0.00 67 1018.1
20260905121507 83 359 0.0 0.0 0.00 0.00 0.00 67 1018.1
20260905120004 83 288 0.0 0.0 0.00 0.00 0.00 66 1018.2
20260905114504 84 359 0.0 0.0 0.00 0.00 0.00 63 1018.3
20260905113003 84 359 0.0 0.0 0.00 0.00 0.00 60 1018.4
20260905111505 84 359 0.0 0.0 0.00 0.00 0.00 57 1018.3
20260905110002 83 359 0.0 0.0 0.00 0.00 0.00 55 1018.2
20260905104502 84 359 0.0 0.0 0.00 0.00 0.00 53 1018.3
20260905103002 84 359 0.0 0.0 0.00 0.00 0.00 50 1018.4
20260905101601 84 359 0.0 0.0 0.00 0.00 0.00 50 1018.5
20260905100121 86 195 0.0 0.0 0.00 0.00 0.00 43 1018.6
20260905094559 86 186 0.0 0.0 0.00 0.00 0.00 43 1018.6
20260905093056 85 169 0.0 0.0 0.00 0.00 0.00 43 1018.8
20260905091558 85 359 0.0 0.0 0.00 0.00 0.00 41 1018.9
20260905090117 85 164 0.0 0.0 0.00 0.00 0.00 42 1019.0
20260905084552 84 157 0.0 0.0 0.00 0.00 0.00 43 1019.0
20260905083054 84 197 0.0 0.0 0.00 0.00 0.00 43 1019.0
20260905081557 83 359 0.0 0.0 0.00 0.00 0.00 42 1018.9
20260905080053 82 359 0.0 0.0 0.00 0.00 0.00 48 1018.8
20260905074542 81 359 0.0 0.0 0.00 0.00 0.00 46 1018.5
20260905073038 79 359 0.0 0.0 0.00 0.00 0.00 48 1018.4
20260905071534 78 359 0.0 0.0 0.00 0.00 0.00 50 1018.3
20260905070032 77 359 0.0 0.0 0.00 0.00 0.00 50 1018.4